Home   Weather   Pullman   Past weeks

Flag for USA Past Weather in Pullman, Washington, USA — Yesterday and Last 2 Weeks

50 °F

Rain. Fog.

Feels Like: 48 °F
Forecast: 47 / 55 °F
Wind: 5 mph from Southeast

Location: Pullman / Moscow Regional Airport

Current Time: Oct 21, 2016 at 3:05:48 PM

Latest Report: Oct 21, 2016 at 2:02 PM

Visibility: 2 mi

Pressure: 29.99 "Hg (27.51 "Hg at 715m altitude)

Humidity: 89%

Dew Point: 47 °F

Location of PullmanLocation

Past Weather in Pullman — Graph


Pullman Temperature Yesterday

Maximum temperature yesterday: 53 °F (at 11:53 AM)
Minimum temperature yesterday: 46 °F (at 2:53 AM)
Average temperature yesterday: 50 °F

High & Low Weather Summary for the Past Weeks

High70 °F (Oct 8, 3:53 PM)97% (Oct 9, 10:53 PM)30.44 "Hg (Oct 9, 10:53 PM)
Low30 °F (Oct 11, 6:53 AM)35% (Oct 12, 4:53 PM)29.42 "Hg (Oct 15, 9:53 PM)
Average49 °F75%29.96 "Hg
* Reported Oct 6 2:53 PM — Oct 21 2:02 PM, Pullman, Weather by CustomWeather, © 2016

Note: Actual official high and low records may vary slightly from our data, if they occured in-between our weather recording intervals... More about our weather records


Pullman Weather History for the Previous 24 Hours

Scroll right to see more
Time TempWeatherWind HumidityBarometerVisibility
2:02 PM
Fri, Oct 21
50 °FRain. Fog.5 mph89%29.99 "Hg2 mi
1:53 PM50 °FLight rain. Cloudy.3 mph89%30.00 "Hg7 mi
12:53 PM50 °FLight rain. Overcast.8 mph89%30.01 "Hg8 mi
11:53 AM49 °FLight rain. Fog.8 mph90%30.03 "Hg4 mi
10:53 AM48 °FLight rain. Fog.12 mph93%30.05 "Hg5 mi
9:53 AM49 °FRain. Fog.5 mph90%30.06 "Hg4 mi
8:53 AM49 °FLight rain. Fog.9 mph86%30.06 "Hg5 mi
7:53 AM48 °FLight rain. Fog.7 mph89%30.07 "Hg6 mi
6:53 AM49 °FMostly cloudy.10 mph86%30.07 "Hg10 mi
5:53 AM49 °FMostly cloudy.9 mph86%30.09 "Hg10 mi
4:53 AM48 °FPartly cloudy.No wind93%30.10 "Hg10 mi
3:53 AM48 °FPassing clouds.5 mph93%30.11 "Hg10 mi
2:53 AM49 °FMostly cloudy.No wind93%30.12 "Hg10 mi
1:53 AM50 °FPassing clouds.3 mph89%30.13 "Hg10 mi
12:53 AM51 °FOvercast.5 mph92%30.13 "Hg10 mi
11:53 PM
Thu, Oct 20
52 °FOvercast.8 mph89%30.13 "Hg10 mi
10:53 PM52 °FMostly cloudy.10 mph89%30.14 "Hg10 mi
9:53 PM52 °FLow clouds.13 mph89%30.12 "Hg10 mi
8:53 PM51 °FOvercast.No wind89%30.11 "Hg10 mi
7:53 PM51 °FLight rain. Mostly cloudy.6 mph92%30.11 "Hg10 mi
6:55 PM50 °FHeavy rain. Fog.5 mph96%30.09 "Hg3 mi
6:04 PM52 °FLight rain. Overcast.No wind80%30.09 "Hg6 mi
5:53 PM52 °FLight rain. Overcast.No wind80%30.10 "Hg10 mi
4:53 PM52 °FRain. Mostly cloudy.7 mph77%30.10 "Hg3 mi
3:53 PM52 °FLight rain. Overcast.6 mph75%30.09 "Hg5 mi
Weather by CustomWeather, © 2016

See weather overviewHow to use our weather pages